Flag for India Weather past 2 weeks in Navi Mumbai, Maharashtra, India

Now
90 °F

Broken clouds.


Feels Like: 105 °F
Forecast: 81 / 98 °F
Wind: 14 mph from West

Location: Bombay / Santacruz

Current Time: Mar 29, 2015 at 4:21:07 PM

Latest Report: Mar 29, 2015 at 2:40 PM


Visibility: 2 mi

Pressure: 29.77 "Hg

Humidity: 71%

Dew point: 79 °F

Location of Navi MumbaiLocation

Historic Weather in Navi Mumbai — Graph

°F

Navi Mumbai temperature yesterday

Maximum temperature yesterday: 90 °F (at 11:40 AM)
Minimum temperature yesterday: 82 °F (at 1:40 AM)
Average temperature yesterday: 86 °F

Past Weeks' High & Low Weather Summary

 TemperatureHumidityPressure
High104 °F (Mar 25, 1:40 PM)94% (Mar 22, 2:40 AM)30.04 "Hg (Mar 22, 2:40 AM)
Low73 °F (Mar 17, 2:40 AM)23% (Mar 18, 12:40 PM)29.71 "Hg (Mar 25, 3:40 PM)
Average85 °F62%29.87 "Hg
* Reported Mar 14 2:40 PM — Mar 29 2:40 PM, Navi Mumbai, Weather by CustomWeather, © 2015

Note: Actual official high and low records may vary slightly from our data, if they occured in-between our weather recording intervals... More about our weather records

Advertising

Navi Mumbai weather history for previous 24 hours

 ConditionsComfort  
Time TempWeatherWind HumidityBarometerVisibility
2:40 PM
Sun, Mar 29
90 °FBroken clouds.14 mph71%29.77 "Hg2 mi
1:40 PM91 °FScattered clouds.8 mph67%29.80 "Hg2 mi
12:40 PM91 °FScattered clouds.9 mph71%29.83 "Hg2 mi
11:40 AM90 °FScattered clouds.12 mph71%29.86 "Hg2 mi
10:40 AM90 °FPartly sunny.5 mph71%29.86 "Hg2 mi
9:40 AM88 °FScattered clouds.7 mph70%29.86 "Hg2 mi
8:40 AM86 °FScattered clouds.7 mph70%29.86 "Hg2 mi
7:40 AM84 °FScattered clouds.3 mph84%29.83 "Hg2 mi
6:40 AM84 °FPassing clouds.5 mph70%29.83 "Hg2 mi
5:40 AM84 °FPassing clouds.3 mph70%29.80 "Hg2 mi
4:40 AM84 °FPassing clouds.No wind70%29.77 "Hg2 mi
3:40 AM84 °FPassing clouds.No wind70%29.77 "Hg2 mi
2:40 AM84 °FPassing clouds.3 mph79%29.80 "Hg2 mi
1:40 AM82 °FPassing clouds.6 mph84%29.80 "Hg2 mi
12:40 AM84 °FPassing clouds.8 mph79%29.86 "Hg2 mi
10:40 PM
Sat, Mar 28
84 °FHaze.9 mph79%29.86 "Hg2 mi
9:40 PM86 °FPassing clouds.8 mph75%29.86 "Hg1 mi
8:40 PM86 °FPassing clouds.8 mph75%29.86 "Hg1 mi
7:40 PM86 °FPassing clouds.9 mph75%29.83 "Hg2 mi
5:40 PM86 °FHaze.13 mph70%29.77 "Hg2 mi
4:40 PM88 °FHaze.13 mph70%29.74 "Hg2 mi
Weather by CustomWeather, © 2015

See weather overviewHow to use our weather pages